Regional Weather Roundup
Issued by NWS

Home | Current Version | Previous Version | Graphics & Text | Print | Product List | Glossary On
Versions: 1 2 3 4 5 6 7 8 9 10 11 12 13 14 15 16 17 18 19 20 21 22 23 24 25 26 27 28 29 30 31 32 33 34 35 36 37 38 39 40 41 42 43 44 45 46
000
ASUS43 KDMX 272307
RWRIA

WEATHER ROUNDUP FOR IOWA
NATIONAL WEATHER SERVICE DES MOINES IA
500 PM CST SAT DEC 27 2014

NOTE: "FAIR" INDICATES FEW OR NO CLOUDS BELOW 12,000 FEET WITH NO
SIGNIFICANT WEATHER AND/OR OBSTRUCTIONS TO VISIBILITY.

* - THESE STATIONS ARE NOT NWS STATIONS...THUS NOT UNDER NWS
QUALITY CONTROL.  THEY ALSO DO NOT REPORT WEATHER SUCH
AS PRECIPITATION OR FOG.

IAZ001>003-012>014-020>022-031>034-043>046-280000-
   NORTHWEST IOWA

CITY           SKY/WX    TMP DP  RH WIND       PRES   REMARKS
CARROLL *      CLEAR     19  14  79 W6        30.21R WCI  11
CHEROKEE *     CLEAR     16  10  79 W7        30.20R WCI   6
DENISON *      CLEAR     21  14  73 W7        30.20R WCI  13
LE MARS *      CLEAR     16  12  86 SW5       30.21S WCI   9
ORANGE CITY *  CLEAR     12   9  85 SW5       30.18R WCI   4
SHELDON *      CLEAR     10   7  85 SW7       30.16R WCI   0
SIOUX CITY     CLEAR     16  10  77 W6        30.23R WCI   7
SPENCER        CLEAR     14   9  80 W10       30.17R WCI   1
STORM LAKE *   CLEAR     14  10  85 W13       30.18S WCI   0
$$

IAZ055>058-069>071-079>083-090>094-280000-
   SOUTHWEST IOWA

CITY           SKY/WX    TMP DP  RH WIND       PRES   REMARKS
ATLANTIC *     CLEAR     25  18  74 W9        30.22S WCI  15
AUDUBON *      CLEAR     21  14  73 CALM      30.21R
CLARINDA *     CLEAR     27  21  80 NW3       30.26S
COUNCIL BLFS * CLEAR     23  18  80 W7        30.22R WCI  15
CRESTON *      CLOUDY    25  21  86 W10       30.21S WCI  15
HARLAN  *      CLEAR     23  19  86 W8        30.25S WCI  14
LAMONI         CLOUDY    26  20  77 NW13      30.22R WCI  15
RED OAK *      CLEAR     27  19  74 NW6       30.24S WCI  20
SHENANDOAH *   CLEAR     28  21  74 W9        30.26R WCI  20
$$

IAZ047>049-059>061-072>074-084-280000-
   CENTRAL IOWA

CITY           SKY/WX    TMP DP  RH WIND       PRES   REMARKS
AMES           MOCLDY    24  17  74 W10       30.21R WCI  14
ANKENY *       MOCLDY    25  19  80 W12       30.22R WCI  14
CHARITON *     CLOUDY    28  23  80 MISG      30.21R
DES MOINES     CLOUDY    27  19  72 NW9       30.22R WCI  18
GRINNELL*      PTCLDY    27  21  80 W9        30.19R WCI  17
KNOXVILLE *    CLOUDY    27  21  80 W13       30.20R WCI  16
MARSHALLTOWN   CLEAR     24  18  77 NW15      30.18R WCI  11
PELLA *        CLOUDY    28  22  79 NW9       30.22R WCI  19
PERRY *          N/A     25  21  86 NW6       30.21S WCI  18
$$

IAZ004>006-015-016-023>025-035-036-280000-
   NORTH CENTRAL IOWA

CITY           SKY/WX    TMP DP  RH WIND       PRES   REMARKS
ALGONA *       CLEAR     18  12  79 SW9       30.17R WCI   6
CLARION *      CLEAR     16  14  93 W9        30.18R WCI   4
ESTHERVILLE    CLEAR     15   9  76 W9        30.15R WCI   3
FORT DODGE *   CLEAR     18  10  73 W8        30.20R WCI   7
MASON CITY     CLEAR     15   8  73 W6        30.17R WCI   6
FOREST CITY *  CLEAR     18  10  73 CALM      30.15R
IOWA FALLS *     N/A     19  16  86 W13       30.19R WCI   7
$$

IAZ007>011-017>019-026>030-037>042-050>054-066-280000-
   NORTHEAST IOWA

CITY           SKY/WX    TMP DP  RH WIND       PRES   REMARKS
CEDAR RAPIDS   CLOUDY    27  22  81 W15       30.15R WCI  15
CHARLES CITY * CLEAR     19  14  79 W13       30.16R WCI   7
CLINTON *      MOCLDY    30  25  80 W13       30.14S WCI  20
DECORAH *      CLOUDY    21  18  86 W10       30.11S WCI  10
DUBUQUE        CLOUDY    29  23  78 W14       30.10R WCI  18
MONTICELLO *   CLOUDY    28  25  86 W18       30.13S WCI  16
OELWEIN *      CLOUDY    23  19  86 W16       30.15R WCI  10
WATERLOO       MOCLDY    22  17  81 W12       30.17R WCI  10
$$

IAZ064-065-067-068-078-280000-
   EAST CENTRAL IOWA

CITY           SKY/WX    TMP DP  RH WIND       PRES   REMARKS
DAVENPORT      CLOUDY    31  25  78 W17       30.13R WCI  19
IOWA CITY      CLOUDY    29  23  78 NW10      30.19R WCI  20
MT. PLEASANT * CLOUDY    30  25  80 W14       30.20R WCI  20
MUSCATINE *    CLOUDY    32  25  74 W16       30.18R WCI  21
QUAD CITIES    CLOUDY    33  24  69 W14       30.13S WCI  23
$$

IAZ062-063-075>077-085>089-095>099-280000-
   SOUTHEAST IOWA

CITY           SKY/WX    TMP DP  RH WIND       PRES   REMARKS
BURLINGTON     CLOUDY    32  25  75 NW10G17   30.19R WCI  24
FAIRFIELD *    CLOUDY    30  23  74 NW10G20   30.20R WCI  21
FORT MADISON * CLOUDY    34  28  80 NW13      30.20R WCI  25
KEOKUK *       CLOUDY    34  25  69 NW9       30.19R WCI  26
OSKALOOSA *    CLOUDY    28  23  80 NW17      30.21R WCI  16
CENTERVILLE *  CLOUDY    28  25  86 NW9       30.22R WCI  20
OTTUMWA        CLOUDY    29  21  72 NW10      30.20R WCI  20
WASHINGTON *   CLOUDY    30  27  86 NW15      30.18R WCI  19
$$

ABBREVIATIONS USED IN REMARKS
   TC - TEMPERATURES IN CELSIUS
  WCI - WIND CHILL INDEX
   HX - HEAT INDEX
  VSB - VISIBILITY
$$



USA.gov is the U.S. government's official web portal to all federal, state and local government web resources and services.